Location: Newark
(33.6333°S, 78.8500°W)
Time: 17:59:27
(UTC+00:00)

Tiros 1 despin weight - Visible Passes

Search period start: 21 October 2019 00:00
Search period end: 31 October 2019 00:00
Orbit: 593 x 643 km, 48.2° (Epoch: 21 October)

Date Brightness Start Highest point End Pass type
(mag) Time Alt. Az. Time Alt. Az. Time Alt. Az.
21 Oct ? 00:04:45 10° SW 00:09:14 82° SE 00:13:39 10° NE visible
21 Oct ? 01:48:01 10° W 01:50:19 14° NW 01:50:44 14° NW visible
22 Oct ? 00:21:27 10° WSW 00:25:45 47° NW 00:29:58 10° NNE visible
23 Oct ? 00:38:42 10° W 00:42:08 22° NW 00:45:33 10° N visible
